This demonstration page uses our WeatherBlox Daily Observations layout. Learn more.

Left ArrowRight Arrow

38.80484, -77.04692

Hourly Observations for April 1, 2015

Temp ( °F °C ) Dew Point ( °F °C ) Humidity (%) Winds ( mph kmh ) Pressure ( in mb ) Visibility ( mi km ) Precip ( " mm )
12:52 am 00:52 Partly Cloudy 44 6.7 32 0 63 63 N 24 39 29.93 1013 10 16 0.00 0.00
1:52 am 01:52 Partly Cloudy 43 6.1 31 -0.6 63 63 N 13 20 29.96 1014 10 16 0.00 0.00
2:52 am 02:52 Mostly Clear 41 5 30 -1.1 65 65 N 7 11 29.98 1015 10 16 0.00 0.00
3:52 am 03:52 Mostly Clear 41 5 30 -1.1 65 65 NNW 7 11 29.99 1016 10 16 0.00 0.00
4:52 am 04:52 Mostly Clear 41 5 29 -1.7 62 62 NW 7 11 30.01 1016 10 16 0.00 0.00
5:52 am 05:52 Mostly Clear 41 5 28 -2.2 60 60 NW 12 19 30.03 1017 10 16 0.00 0.00
6:52 am 06:52 Mostly Clear 41 5 27 -2.8 57 57 NW 9 15 30.07 1018 10 16 0.00 0.00
7:52 am 07:52 Mostly Sunny 43 6.1 27 -2.8 53 53 WNW 9 15 30.11 1020 10 16 0.00 0.00
8:52 am 08:52 Sunny 46 7.8 27 -2.8 47 47 NW 13 20 30.14 1021 10 16 0.00 0.00
9:52 am 09:52 Sunny 48 8.9 27 -2.8 44 44 NNW 9 15 30.16 1022 10 16 0.00 0.00
10:52 am 10:52 Sunny 50 10 27 -3 40 40 N 13 20 30.18 1022 10 16 0.00 0.00
11:52 am 11:52 Sunny 51 10.6 26 -3.3 38 38 N 9 15 30.17 1022 10 16 0.00 0.00
12:52 pm 12:52 Sunny 55 12.8 27 -2.8 34 34 NW 7 11 30.16 1022 10 16 0.00 0.00
1:52 pm 13:52 Mostly Sunny 57 13.9 26 -3.3 30 30 NNW 10 17 30.16 1021 10 16 0.00 0.00
2:52 pm 14:52 Mostly Sunny 59 15 26 -3.3 28 28 NW 13 20 30.16 1021 10 16 0.00 0.00
3:52 pm 15:52 Partly Cloudy 60 15.6 26 -3.3 27 27 NW 15 24 30.16 1021 10 16 0.00 0.00
4:52 pm 16:52 Partly Cloudy 61 16.1 27 -2.8 27 27 NNW 16 26 30.16 1021 10 16 0.00 0.00
5:52 pm 17:52 Mostly Sunny 60 15.6 27 -2.8 28 28 N 7 11 30.16 1021 10 16 0.00 0.00
6:52 pm 18:52 Mostly Sunny 59 15 28 -2.2 31 31 N 7 11 30.17 1022 10 16 0.00 0.00
7:52 pm 19:52 Mostly Cloudy with Light Rain 55 13 43 6 63 63 NNW 17 28 29.71 1006 10 16 0.00 0.00
8:52 pm 20:52 Clear 55 12.8 30 -1.1 38 38 ESE 3 6 30.22 1023 10 16 0.00 0.00
9:52 pm 21:52 Clear 52 11.1 34 1.1 50 50 S 5 7 30.23 1024 10 16 0.00 0.00
10:52 pm 22:52 Clear 52 11.1 33 0.6 49 49 Calm 30.24 1024 10 16 0.00 0.00
11:52 pm 23:52 Clear 50 10 30 -1.1 46 46 SSE 5 7 30.25 1025 10 16 0.00 0.00

Powered by AerisWeather